Weather History for Oxford, CT

Change the Weather History Date:

Wednesday, August 28, 2013

  Actual Average Record
Temperature  
Mean Temperature 73 °F -  
Max Temperature 84 °F 74 °F 86 °F (2004)
Min Temperature 62 °F 57 °F 50 °F (2010)
Cooling Degree Days 8    
Growing Degree Days 23 (Base 50)    
Moisture  
Dew Point 63 °F    
Average Humidity 81    
Maximum Humidity 94    
Minimum Humidity 58    
Precipitation  
Precipitation 0.00 in - - ()
Sea Level Pressure  
Sea Level Pressure 29.93 in    
Wind  
Wind Speed 2 mph (NNE)    
Max Wind Speed 9 mph    
Max Gust Speed -    
Visibility 8 miles    
Events Thunderstorm    
Averages and records for this station are not official NWS values.
T = Trace of Precipitation, MM = Missing Value Source: NWS Daily Summary

Daily Weather History Graph

Daily Weather History Graph

Search for Another Location

Airport:

Trip Planner

Search our weather history database for the weather conditions in past years. The results will help you decide how hot, cold, wet, or windy it might be!

Date:

Astronomy

Aug. 28, 2013 Rise Set
Actual Time 6:14 AM EDT 7:31 PM EDT
Civil Twilight 5:46 AM EDT 8:00 PM EDT
Nautical Twilight 5:11 AM EDT 8:34 PM EDT
Astronomical Twilight 4:35 AM EDT 9:10 PM EDT
Moon No Moon Rise 2:08 PM EDT (8/28)
Length of Visible Light 14h 14m
Length of Day
13h 16m
Waning Gibbous, 47% of the Moon is Illuminated
Aug 28
Waning Gibbous
Sep 5
New
Sep 12
First Quarter
Sep 19
Full
Sep 26
Last Quarter

Hourly Weather History & Observations

Time (EDT) Temp. Heat Index Dew Point Humidity Pressure Visibility Wind Dir Wind Speed Gust Speed Precip Events Conditions
12:15 AM 66.2 °F - 62.6 °F 88% 29.95 in 8.0 mi Calm Calm - N/A   Clear
12:35 AM 66.2 °F - 62.6 °F 88% 29.94 in 9.0 mi Calm Calm - N/A   Clear
12:55 AM 66.2 °F - 62.6 °F 88% 29.94 in 10.0 mi Calm Calm - N/A   Clear
1:15 AM 64.4 °F - 62.6 °F 94% 29.93 in 9.0 mi Calm Calm - N/A   Clear
1:35 AM 64.4 °F - 60.8 °F 88% 29.93 in 8.0 mi Calm Calm - N/A   Clear
1:55 AM 64.4 °F - 60.8 °F 88% 29.92 in 10.0 mi North 3.5 mph - N/A   Clear
2:15 AM 64.4 °F - 60.8 °F 88% 29.92 in 6.0 mi Calm Calm - N/A   Clear
2:35 AM 64.4 °F - 60.8 °F 88% 29.92 in 5.0 mi Calm Calm - N/A   Clear
2:55 AM 64.4 °F - 60.8 °F 88% 29.91 in 9.0 mi Calm Calm - N/A   Clear
3:15 AM 64.4 °F - 60.8 °F 88% 29.91 in 10.0 mi North 4.6 mph - N/A   Clear
3:35 AM 64.4 °F - 60.8 °F 88% 29.91 in 7.0 mi NNE 3.5 mph - N/A   Clear
3:55 AM 64.4 °F - 60.8 °F 88% 29.90 in 7.0 mi Calm Calm - N/A   Clear
4:15 AM 64.4 °F - 60.8 °F 88% 29.90 in 7.0 mi Calm Calm - N/A   Clear
4:35 AM 64.4 °F - 60.8 °F 88% 29.91 in 5.0 mi Calm Calm - N/A   Clear
4:55 AM 62.6 °F - 59.0 °F 88% 29.91 in 7.0 mi Calm Calm - N/A   Clear
5:15 AM 62.6 °F - 59.0 °F 88% 29.91 in 10.0 mi North 3.5 mph - N/A   Clear
5:35 AM 62.6 °F - 59.0 °F 88% 29.91 in 10.0 mi Calm Calm - N/A   Clear
5:45 AM 62.6 °F - 59.0 °F 88% 29.91 in 8.0 mi Calm Calm - N/A   Clear
6:45 AM 62.6 °F - 59.0 °F 88% 29.93 in 8.0 mi NNE 3.5 mph - N/A   Clear
7:43 AM 66.2 °F - 62.6 °F 88% 29.93 in 10.0 mi Calm Calm - N/A   Clear
8:45 AM 73.4 °F - 66.2 °F 78% 29.93 in 10.0 mi Calm Calm - N/A   Clear
9:45 AM 75.2 °F - 66.2 °F 73% 29.95 in 10.0 mi North 3.5 mph - N/A   Clear
10:45 AM 78.8 °F - 66.2 °F 65% 29.94 in 10.0 mi Variable 4.6 mph - N/A   Partly Cloudy
11:55 AM 78.8 °F - 66.2 °F 65% 29.94 in 10.0 mi Variable 4.6 mph - N/A   Mostly Cloudy
12:45 PM 82.4 °F 84.6 °F 66.2 °F 58% 29.92 in 10.0 mi SSW 6.9 mph - N/A   Mostly Cloudy
1:45 PM 84.2 °F 87.3 °F 68.0 °F 58% 29.91 in 10.0 mi South 4.6 mph - N/A   Mostly Cloudy
2:45 PM 84.2 °F 88.4 °F 69.8 °F 62% 29.91 in 10.0 mi South 8.1 mph - N/A   Mostly Cloudy
3:45 PM 82.4 °F 85.4 °F 68.0 °F 62% 29.90 in 8.0 mi South 9.2 mph - N/A   Scattered Clouds
4:45 PM 78.8 °F - 68.0 °F 69% 29.91 in 8.0 mi WSW 6.9 mph - N/A   Mostly Cloudy
5:10 PM 77.0 °F - 66.2 °F 69% 29.91 in 7.0 mi West 3.5 mph - N/A Thunderstorm Thunderstorm
5:45 PM 75.2 °F - 64.4 °F 69% 29.93 in 8.0 mi Variable 3.5 mph - N/A   Overcast
6:55 PM 73.4 °F - 64.4 °F 73% 29.92 in 8.0 mi Variable 4.6 mph - N/A   Mostly Cloudy
8:45 PM 69.8 °F - 62.6 °F 78% 29.95 in 8.0 mi Calm Calm - N/A   Clear
9:15 PM 68.0 °F - 62.6 °F 83% 29.95 in 10.0 mi Calm Calm - N/A   Clear
9:35 PM 68.0 °F - 62.6 °F 83% 29.95 in 10.0 mi Calm Calm - N/A   Clear
9:55 PM 66.2 °F - 62.6 °F 88% 29.95 in 10.0 mi North 4.6 mph - N/A   Clear
10:15 PM 66.2 °F - 62.6 °F 88% 29.95 in 10.0 mi East 3.5 mph - N/A   Clear
10:35 PM - - - N/A% 29.94 in 10.0 mi Calm Calm - N/A   Scattered Clouds
10:55 PM 68.0 °F - 62.6 °F 83% 29.94 in 10.0 mi Calm Calm - N/A   Overcast
11:15 PM 68.0 °F - 62.6 °F 83% 29.94 in 5.0 mi NE 3.5 mph - N/A   Overcast
11:35 PM 68.0 °F - 64.4 °F 88% 29.95 in 1.0 mi Calm Calm - N/A   Overcast
11:55 PM 66.2 °F - 62.6 °F 88% 29.96 in 3.0 mi NNE 4.6 mph - N/A   Overcast